Date String (YYYY-MM-DD hh:mm:ss) UTC,Instrument flags,absolute air pressure of the measurement (hPa),sample flow rate (lpm),inlet stack bypass flow (lpm),air temperature of the measurement (°C),ambient temperature measured by the external sensor (°C),aerosol sample conditioner tube jacket temperature (°C),OPC LED temperature (°C),internal box temperature (°C),relative humidity of the measurement (%),span deviation,mass concentration of particles derived from Lorenz-Mie calculation of OPC scattering (μg/m³),mass concentration of particles derived from Lorenz-Mie calculation of OPC scattering (μg/m³),mass concentration of particles derived from Lorenz-Mie calculation of OPC scattering (μg/m³)
DateTimeUTC,F1_M11,P_M11,Q1_M11,Q2_M11,T1_M11,T2_M11,T3_M11,T4_M11,T5_M11,U1_M11,ZSPAN_M11,X2_M11,X0_M11,X1_M11
2023-09-30 21:00:00,SystemResetWarning,0825.9,5.01,000.00,028.0,025.6,000.0,036.4,029.7,20.7,0000.0,0007.06,0020.69,0005.55
2023-09-30 21:01:00,SystemResetWarning,0825.9,5.00,000.00,028.0,026.0,000.0,036.4,029.8,21.4,0000.0,0007.08,0020.88,0005.56
2023-09-30 21:02:00,SystemResetWarning,0825.9,5.00,000.00,028.0,026.4,000.0,036.4,029.9,22.0,0000.0,0007.10,0020.87,0005.56
2023-09-30 21:03:00,SystemResetWarning,0825.9,5.00,000.00,028.1,026.7,000.0,036.5,030.0,21.6,0000.0,0007.14,0021.43,0005.58
2023-09-30 21:04:00,SystemResetWarning,0825.9,5.00,000.00,028.2,027.0,000.0,036.5,030.0,21.2,0000.0,0007.16,0020.81,0005.58
2023-09-30 21:05:00,SystemResetWarning,0825.9,4.99,000.00,028.2,026.5,000.0,036.5,030.1,20.8,0000.0,0007.17,0021.99,0005.58
2023-09-30 21:06:00,SystemResetWarning,0825.9,5.00,000.00,028.1,024.9,000.0,036.4,029.9,20.9,0000.0,0007.16,0022.10,0005.58
2023-09-30 21:07:00,SystemResetWarning,0825.8,5.00,000.00,028.1,024.4,000.0,036.4,029.7,20.5,0000.0,0007.21,0021.05,0005.57
2023-09-30 21:08:00,SystemResetWarning,0825.8,5.01,000.00,028.0,024.7,000.0,036.4,029.7,20.9,0000.0,0007.26,0020.90,0005.57
2023-09-30 21:09:00,SystemResetWarning,0825.8,5.00,000.00,028.0,025.1,000.0,036.4,029.6,21.0,0000.6,0007.21,0020.18,0005.57
2023-09-30 21:10:00,SystemResetWarning,0825.8,5.00,000.00,028.0,025.5,000.0,036.4,029.7,20.4,0002.5,0007.11,0020.17,0005.56
2023-09-30 21:11:00,SystemResetWarning,0825.8,5.00,000.00,028.0,026.0,000.0,036.4,029.8,20.1,0002.5,0007.06,0020.52,0005.55
2023-09-30 21:12:00,SystemResetWarning,0825.8,5.00,000.00,028.0,026.4,000.0,036.4,029.9,20.2,0002.8,0007.03,0020.17,0005.54
2023-09-30 21:13:00,SystemResetWarning,0825.8,5.00,000.00,028.1,026.7,000.0,036.5,030.0,19.9,0003.1,0006.98,0019.95,0005.53
2023-09-30 21:14:00,SystemResetWarning,0825.8,5.00,000.00,028.2,026.9,000.0,036.5,030.1,19.1,0002.2,0006.95,0020.20,0005.52
2023-09-30 21:15:00,SystemResetWarning,0825.8,4.98,000.00,028.2,025.7,000.0,036.4,030.0,19.4,0001.4,0006.92,0020.24,0005.52
2023-09-30 21:16:00,SystemResetWarning,0825.6,5.01,000.00,028.1,024.3,000.0,036.4,029.7,20.0,0002.0,0006.95,0019.59,0005.52
2023-09-30 21:17:00,SystemResetWarning,0825.6,5.01,000.00,028.0,024.3,000.0,036.3,029.7,19.8,0000.0,0007.01,0018.92,0005.52
2023-09-30 21:18:00,SystemResetWarning,0825.6,5.00,000.00,028.0,024.7,000.0,036.3,029.6,19.6,0000.0,0006.99,0019.41,0005.53
2023-09-30 21:19:00,SystemResetWarning,0825.6,5.00,000.00,027.9,025.1,000.0,036.4,029.6,19.8,0000.7,0006.94,0020.81,0005.53
2023-09-30 21:20:00,SystemResetWarning,0825.6,5.00,000.00,028.0,025.6,000.0,036.4,029.7,20.2,0000.0,0006.98,0021.13,0005.54
2023-09-30 21:21:00,SystemResetWarning,0825.6,5.00,000.00,028.0,026.0,000.0,036.4,029.8,20.2,0000.0,0007.03,0021.42,0005.54
2023-09-30 21:22:00,SystemResetWarning,0825.7,5.00,000.00,028.0,026.4,000.0,036.4,029.9,20.3,0000.0,0007.04,0020.96,0005.54
2023-09-30 21:23:00,SystemResetWarning,0825.7,5.00,000.00,028.1,026.8,000.0,036.4,030.0,20.1,0000.0,0007.10,0020.49,0005.56
2023-09-30 21:24:00,SystemResetWarning,0825.7,5.00,000.00,028.2,027.0,000.0,036.5,030.1,20.3,0000.0,0007.14,0020.28,0005.59
2023-09-30 21:25:00,SystemResetWarning,0825.7,4.98,000.00,028.2,026.1,000.0,036.5,030.0,20.2,0000.0,0007.16,0019.51,0005.60
2023-09-30 21:26:00,SystemResetWarning,0825.7,5.01,000.00,028.1,024.6,000.0,036.4,029.7,20.3,0000.0,0007.18,0019.85,0005.61
2023-09-30 21:27:00,SystemResetWarning,0825.6,5.01,000.00,028.0,024.4,000.0,036.3,029.7,20.4,0000.0,0007.20,0020.82,0005.63
2023-09-30 21:28:00,SystemResetWarning,0825.6,5.01,000.00,028.0,024.7,000.0,036.3,029.6,20.7,0000.0,0007.23,0020.35,0005.64
2023-09-30 21:29:00,SystemResetWarning,0825.6,4.98,000.00,027.9,025.2,000.0,036.4,029.6,20.3,0000.0,0007.28,0019.52,0005.65
2023-09-30 21:30:00,SystemResetWarning,0825.6,5.00,000.00,027.9,025.6,000.0,036.4,029.7,20.6,0000.0,0007.29,0018.15,0005.65
2023-09-30 21:31:00,SystemResetWarning,0825.7,5.00,000.00,028.0,026.1,000.0,036.4,029.8,20.7,0000.0,0007.28,0017.73,0005.66
2023-09-30 21:32:00,SystemResetWarning,0825.7,5.01,000.00,028.0,026.5,000.0,036.4,029.9,20.9,0000.0,0007.35,0017.92,0005.69
2023-09-30 21:33:00,SystemResetWarning,0825.7,5.00,000.00,028.1,026.8,000.0,036.4,030.0,21.1,0000.0,0007.36,0018.07,0005.71
2023-09-30 21:34:00,SystemResetWarning,0825.7,4.99,000.00,028.1,026.8,000.0,036.4,030.0,20.8,0000.0,0007.32,0019.20,0005.70
2023-09-30 21:35:00,SystemResetWarning,0825.7,4.99,000.00,028.1,025.4,000.0,036.4,029.9,20.9,0000.0,0007.28,0020.86,0005.69
2023-09-30 21:36:00,SystemResetWarning,0825.6,5.01,000.00,028.0,024.3,000.0,036.3,029.7,21.0,0000.0,0007.29,0020.89,0005.70
2023-09-30 21:37:00,SystemResetWarning,0825.6,5.01,000.00,028.0,024.5,000.0,036.3,029.6,21.0,0000.0,0007.27,0021.56,0005.71
2023-09-30 21:38:00,SystemResetWarning,0825.6,5.00,000.00,027.9,024.9,000.0,036.3,029.5,21.1,0000.0,0007.27,0021.46,0005.71
2023-09-30 21:39:00,SystemResetWarning,0825.6,5.00,000.00,027.9,025.3,000.0,036.3,029.6,21.1,0000.0,0007.28,0022.15,0005.72
2023-09-30 21:40:00,SystemResetWarning,0825.7,5.01,000.00,027.9,025.7,000.0,036.3,029.7,21.2,0000.0,0007.22,0021.94,0005.69
2023-09-30 21:41:00,SystemResetWarning,0825.7,5.00,000.00,028.0,026.1,000.0,036.4,029.8,21.1,0000.0,0007.20,0021.56,0005.67
2023-09-30 21:42:00,SystemResetWarning,0825.7,5.00,000.00,028.0,026.5,000.0,036.4,029.9,20.9,0000.0,0007.20,0022.96,0005.66
2023-09-30 21:43:00,SystemResetWarning,0825.8,5.01,000.00,028.1,026.8,000.0,036.4,030.0,20.7,0000.0,0007.12,0023.39,0005.64
2023-09-30 21:44:00,SystemResetWarning,0825.8,5.00,000.00,028.1,026.9,000.0,036.4,030.0,20.6,0000.0,0007.06,0023.28,0005.63
2023-09-30 21:45:00,SystemResetWarning,0825.8,4.98,000.00,028.1,025.6,000.0,036.4,029.9,20.5,0000.0,0007.16,0023.94,0005.63
2023-09-30 21:46:00,SystemResetWarning,0825.7,5.00,000.00,028.0,024.3,000.0,036.3,029.7,20.7,0000.0,0007.17,0024.58,0005.62
2023-09-30 21:47:00,SystemResetWarning,0825.7,5.01,000.00,028.0,024.4,000.0,036.3,029.7,20.6,0000.0,0007.16,0024.52,0005.59
2023-09-30 21:48:00,SystemResetWarning,0825.7,5.02,000.00,027.9,024.7,000.0,036.3,029.6,20.7,0000.0,0007.20,0025.58,0005.56
2023-09-30 21:49:00,SystemResetWarning,0825.7,4.99,000.00,027.9,025.2,000.0,036.3,029.6,20.8,0000.0,0007.17,0024.94,0005.53
2023-09-30 21:50:00,SystemResetWarning,0825.7,5.00,000.00,027.9,025.6,000.0,036.3,029.6,20.8,0000.0,0007.14,0024.14,0005.51
2023-09-30 21:51:00,SystemResetWarning,0825.8,5.00,000.00,027.9,026.0,000.0,036.4,029.8,20.9,0000.0,0007.09,0025.64,0005.49
2023-09-30 21:52:00,SystemResetWarning,0825.8,5.00,000.00,028.0,026.4,000.0,036.4,029.8,20.8,0000.0,0007.13,0026.65,0005.47
2023-09-30 21:53:00,SystemResetWarning,0825.8,4.99,000.00,028.1,026.7,000.0,036.4,029.9,20.5,0000.0,0007.12,0025.80,0005.48
2023-09-30 21:54:00,SystemResetWarning,0825.8,5.00,000.00,028.1,027.0,000.0,036.4,030.0,20.5,0000.0,0007.12,0025.73,0005.47
2023-09-30 21:55:00,SystemResetWarning,0825.7,4.99,000.00,028.2,026.7,000.0,036.4,030.1,20.4,0000.0,0007.07,0025.93,0005.43
2023-09-30 21:56:00,SystemResetWarning,0825.7,5.00,000.00,028.1,025.0,000.0,036.4,029.8,20.5,0000.0,0006.99,0024.98,0005.40
2023-09-30 21:57:00,SystemResetWarning,0825.7,5.00,000.00,028.0,024.2,000.0,036.3,029.7,20.5,0000.0,0006.91,0023.82,0005.40
2023-09-30 21:58:00,SystemResetWarning,0825.7,5.01,000.00,028.0,024.4,000.0,036.3,029.6,20.8,0000.0,0006.89,0022.25,0005.41
2023-09-30 21:59:00,SystemResetWarning,0825.6,5.00,000.00,027.9,024.8,000.0,036.3,029.5,20.9,0000.0,0006.91,0020.83,0005.41
